CW4113 Weather Reports


time (UTC)temp
C
wind
direction
speed
KPH
gust
KPH
rain 1hr
cm
rain 24hr
cm
rain mn
cm
humidity
%
barometer
mb
20260504202305 22 238 16.1 27.4 0.00 0.00 0.00 35 1009.2
20260504201805 22 220 16.1 29.0 0.00 0.00 0.00 36 1009.3
20260504201305 22 225 16.1 32.2 0.00 0.00 0.00 34 1009.4
20260504200805 22 242 11.3 25.7 0.00 0.00 0.00 33 1009.5
20260504200305 22 250 11.3 24.1 0.00 0.00 0.00 35 1009.6
20260504195806 22 280 14.5 35.4 0.00 0.00 0.00 34 1009.7
20260504195305 23 267 9.7 19.3 0.00 0.00 0.00 36 1009.7
20260504194805 23 240 8.0 22.5 0.00 0.00 0.00 34 1009.8
20260504193305 22 240 14.5 25.7 0.00 0.00 0.00 34 1009.9
20260504192806 22 275 11.3 24.1 0.00 0.00 0.00 35 1010.0
20260504192305 22 209 8.0 12.9 0.00 0.00 0.00 35 1010.0
20260504191805 22 266 9.7 27.4 0.00 0.00 0.00 35 1010.1
20260504191305 22 259 11.3 27.4 0.00 0.00 0.00 38 1010.2
20260504190805 22 306 8.0 19.3 0.00 0.00 0.00 37 1010.2
20260504190305 22 181 11.3 22.5 0.00 0.00 0.00 35 1010.2
20260504185806 22 239 16.1 32.2 0.00 0.00 0.00 34 1010.3
20260504185305 22 242 14.5 25.7 0.00 0.00 0.00 35 1010.3
20260504184805 22 227 9.7 25.7 0.00 0.00 0.00 38 1010.3
20260504184305 22 180 6.4 19.3 0.00 0.00 0.00 37 1010.4
20260504183805 22 284 12.9 19.3 0.00 0.00 0.00 35 1010.5
20260504183305 22 273 8.0 19.3 0.00 0.00 0.00 38 1010.4
20260504182805 22 255 12.9 22.5 0.00 0.00 0.00 37 1010.6
20260504182306 22 201 11.3 20.9 0.00 0.00 0.00 37 1010.7
20260504181805 22 185 8.0 19.3 0.00 0.00 0.00 37 1010.7
20260504181306 22 248 4.8 20.9 0.00 0.00 0.00 40 1010.6
20260504180806 21 244 14.5 27.4 0.00 0.00 0.00 36 1010.8
20260504175805 21 173 14.5 24.1 0.00 0.00 0.00 41 1011.0
20260504175306 21 229 12.9 25.7 0.00 0.00 0.00 38 1011.0
20260504174805 21 246 12.9 25.7 0.00 0.00 0.00 38 1011.1
20260504174305 21 257 14.5 24.1 0.00 0.00 0.00 37 1011.1
20260504173805 21 268 11.3 25.7 0.00 0.00 0.00 36 1011.1
20260504172805 21 270 11.3 22.5 0.00 0.00 0.00 38 1011.2
20260504171805 21 260 17.7 32.2 0.00 0.00 0.00 37 1011.4
20260504171305 21 220 14.5 32.2 0.00 0.00 0.00 38 1011.5
20260504170805 21 144 6.4 14.5 0.00 0.00 0.00 40 1011.5
20260504170304 21 251 9.7 24.1 0.00 0.00 0.00 37 1011.6
20260504160306 19 228 14.5 24.1 0.00 0.00 0.00 37 1012.5
20260504150805 18 269 9.7 24.1 0.00 0.00 0.00 41 1013.2
20260504150304 18 205 11.3 20.9 0.00 0.00 0.00 41 1013.3
20260504141304 16 207 9.7 24.1 0.00 0.00 0.00 44 1013.4
20260504140805 16 208 8.0 16.1 0.00 0.00 0.00 49 1013.5
20260504140305 16 217 12.9 22.5 0.00 0.00 0.00 45 1013.4
20260504130305 12 260 9.7 19.3 0.00 0.00 0.00 50 1013.8
20260504120304 11 245 8.0 16.1 0.00 0.00 0.00 49 1013.9
20260504110305 9 212 6.4 14.5 0.00 0.00 0.00 51 1013.8
20260504100305 8 216 8.0 16.1 0.00 0.00 0.00 54 1013.9
20260504081804 8 201 9.7 14.5 0.00 0.00 0.00 53 1014.1
20260504081305 8 206 9.7 19.3 0.00 0.00 0.00 53 1014.1
20260504080805 8 206 9.7 16.1 0.00 0.00 0.00 53 1014.1
20260504080304 8 208 9.7 19.3 0.00 0.00 0.00 54 1014.0
20260504070304 8 215 12.9 19.3 0.00 0.00 0.00 52 1014.1
20260504050304 10 220 12.9 22.5 0.00 0.00 0.00 46 1014.2
20260504045804 10 223 14.5 25.7 0.00 0.00 0.00 47 1014.2
20260504045305 10 213 12.9 22.5 0.00 0.00 0.00 47 1014.1
20260504044804 10 223 12.9 20.9 0.00 0.00 0.00 48 1014.1
20260504044304 10 227 12.9 22.5 0.00 0.00 0.00 48 1014.1
20260504043804 10 221 11.3 20.9 0.00 0.00 0.00 48 1014.1
20260504043304 10 220 11.3 27.4 0.00 0.00 0.00 48 1014.2
20260504041804 10 217 11.3 19.3 0.00 0.00 0.00 47 1014.1
20260504041304 10 220 11.3 22.5 0.00 0.00 0.00 46 1014.0
20260504040817 10 205 11.3 19.3 0.00 0.00 0.00 46 1014.0
20260504040304 10 212 11.3 20.9 0.00 0.00 0.00 46 1014.0
20260504035804 10 213 11.3 20.9 0.00 0.00 0.00 46 1013.9
20260504034804 11 210 11.3 22.5 0.00 0.00 0.00 44 1013.8
20260504033804 11 216 11.3 19.3 0.00 0.00 0.00 45 1013.7
20260504033304 11 216 9.7 19.3 0.00 0.00 0.00 45 1013.6
20260504032803 11 216 11.3 16.1 0.00 0.00 0.00 44 1013.5
20260504032304 11 207 11.3 19.3 0.00 0.00 0.00 44 1013.5
20260504031804 11 212 11.3 19.3 0.00 0.00 0.00 44 1013.5
20260504031304 11 215 11.3 19.3 0.00 0.00 0.00 44 1013.4
20260504030304 11 217 9.7 20.9 0.00 0.00 0.00 44 1013.4
20260504025803 11 215 9.7 20.9 0.00 0.00 0.00 43 1013.3
20260504025305 11 217 11.3 19.3 0.00 0.00 0.00 43 1013.4
20260504024804 11 223 9.7 19.3 0.00 0.00 0.00 43 1013.4
20260504023804 11 214 9.7 19.3 0.00 0.00 0.00 42 1013.4
20260504023304 11 220 8.0 12.9 0.00 0.00 0.00 41 1013.4
20260504022803 11 226 8.0 12.9 0.00 0.00 0.00 42 1013.4
20260504022305 11 222 8.0 12.9 0.00 0.00 0.00 42 1013.5
20260504021804 11 215 9.7 19.3 0.00 0.00 0.00 42 1013.5
20260504021304 11 222 9.7 14.5 0.00 0.00 0.00 42 1013.5
20260504020304 11 218 8.0 14.5 0.00 0.00 0.00 44 1013.6
20260504015804 11 236 8.0 11.3 0.00 0.00 0.00 44 1013.4
20260504015304 11 236 8.0 12.9 0.00 0.00 0.00 45 1013.4
20260504014804 11 232 6.4 11.3 0.00 0.00 0.00 45 1013.4
20260504014305 11 235 6.4 8.0 0.00 0.00 0.00 45 1013.4
20260504013806 11 229 4.8 11.3 0.00 0.00 0.00 45 1013.3
20260504013306 11 243 4.8 11.3 0.00 0.00 0.00 44 1013.3
20260504012805 11 235 6.4 12.9 0.00 0.00 0.00 43 1013.3
20260504012306 12 236 8.0 16.1 0.00 0.00 0.00 42 1013.4
20260504011806 12 237 8.0 12.9 0.00 0.00 0.00 41 1013.3
20260504011306 12 240 6.4 11.3 0.00 0.00 0.00 41 1013.3
20260504010805 12 240 8.0 11.3 0.00 0.00 0.00 40 1013.2
20260504010306 12 238 6.4 16.1 0.00 0.00 0.00 41 1013.2
20260504005806 12 253 8.0 12.9 0.00 0.00 0.00 39 1013.2
20260504004806 12 245 8.0 14.5 0.00 0.00 0.00 38 1013.2
20260504004305 13 240 8.0 16.1 0.00 0.00 0.00 37 1013.2
20260504003806 13 260 9.7 19.3 0.00 0.00 0.00 36 1013.1
20260504003306 13 259 8.0 24.1 0.00 0.00 0.00 36 1013.0
20260504002805 13 254 9.7 14.5 0.00 0.00 0.00 37 1012.9
20260504002306 13 267 8.0 14.5 0.00 0.00 0.00 37 1012.8
20260504001305 13 270 6.4 14.5 0.00 0.00 0.00 36 1012.6
20260503235806 13 263 6.4 14.5 0.00 0.00 0.00 37 1012.5
20260503235306 13 257 8.0 16.1 0.00 0.00 0.00 36 1012.5
20260503234805 13 255 8.0 16.1 0.00 0.00 0.00 36 1012.4
20260503234306 13 260 8.0 20.9 0.00 0.00 0.00 36 1012.4
20260503233305 14 284 9.7 22.5 0.00 0.00 0.00 35 1012.3
20260503232805 14 256 9.7 19.3 0.00 0.00 0.00 35 1012.3
20260503232306 14 259 8.0 20.9 0.00 0.00 0.00 35 1012.3
20260503231806 14 260 4.8 19.3 0.00 0.00 0.00 35 1012.3
20260503231306 14 255 9.7 19.3 0.00 0.00 0.00 34 1012.2
20260503230805 14 253 8.0 19.3 0.00 0.00 0.00 35 1012.2
20260503230306 14 263 11.3 24.1 0.00 0.00 0.00 35 1012.2
20260503225305 15 265 9.7 19.3 0.00 0.00 0.00 35 1012.2
20260503224806 15 244 4.8 22.5 0.00 0.00 0.00 36 1012.1
20260503224305 15 271 9.7 20.9 0.00 0.00 0.00 34 1012.1
20260503223806 15 289 6.4 19.3 0.00 0.00 0.00 36 1012.1
20260503223305 15 259 12.9 20.9 0.00 0.00 0.00 34 1012.1
20260503222805 15 253 8.0 24.1 0.00 0.00 0.00 34 1012.1
20260503221806 15 283 4.8 16.1 0.00 0.00 0.00 35 1012.1
20260503221305 15 282 4.8 12.9 0.00 0.00 0.00 34 1012.1
20260503220805 15 297 9.7 24.1 0.00 0.00 0.00 34 1012.2
20260503220306 15 270 9.7 22.5 0.00 0.00 0.00 33 1012.2
20260503215806 15 274 8.0 19.3 0.00 0.00 0.00 34 1012.2
20260503214806 15 276 6.4 24.1 0.00 0.00 0.00 34 1012.1
20260503213805 15 266 14.5 27.4 0.00 0.00 0.00 33 1012.0
20260503212305 16 280 8.0 16.1 0.00 0.00 0.00 32 1011.9
20260503211806 16 264 11.3 25.7 0.00 0.00 0.00 33 1011.9
20260503211305 15 276 9.7 20.9 0.00 0.00 0.00 33 1011.9
20260503210805 15 308 4.8 19.3 0.00 0.00 0.00 34 1011.9
20260503210305 15 309 4.8 16.1 0.00 0.00 0.00 35 1012.0
20260503205805 15 274 9.7 19.3 0.00 0.00 0.00 33 1012.1
20260503205305 14 288 4.8 11.3 0.00 0.00 0.00 35 1012.1
20260503204806 14 297 4.8 14.5 0.00 0.00 0.00 36 1012.2
20260503204306 15 283 8.0 19.3 0.00 0.00 0.00 32 1012.2
20260503203805 15 290 3.2 16.1 0.00 0.00 0.00 33 1012.1
20260503203305 15 264 6.4 19.3 0.00 0.00 0.00 34 1012.2
20260503202805 15 324 9.7 22.5 0.00 0.00 0.00 32 1012.2